| time (UTC) | temp F | wind direction | speed MPH | gust MPH | rain 1hr in | rain 24hr in | rain mn in | humidity % | barometer mb |
| 20260503191028 | 54 | 87 | 1.0 | 3.0 | 0.00 | 0.00 | 0.00 | 38 | 994.2 |
| 20260503190540 | 54 | 156 | 1.0 | 3.0 | 0.00 | 0.00 | 0.00 | 41 | 994.2 |
| 20260503190031 | 53 | 19 | 1.0 | 5.0 | 0.00 | 0.00 | 0.00 | 43 | 994.4 |
| 20260503185532 | 53 | 288 | 2.0 | 5.0 | 0.00 | 0.00 | 0.00 | 41 | 994.3 |
| 20260503185021 | 53 | 271 | 1.0 | 7.0 | 0.00 | 0.00 | 0.00 | 41 | 994.4 |
| 20260503184522 | 53 | 6 | 2.0 | 7.0 | 0.00 | 0.00 | 0.00 | 40 | 994.5 |
| 20260503184033 | 53 | 252 | 0.0 | 3.0 | 0.00 | 0.00 | 0.00 | 43 | 994.6 |
| 20260503183544 | 53 | 226 | 1.0 | 8.0 | 0.00 | 0.00 | 0.00 | 40 | 994.5 |
| 20260503183020 | 53 | 271 | 1.0 | 2.0 | 0.00 | 0.00 | 0.00 | 42 | 994.6 |
| 20260503182530 | 52 | 288 | 0.0 | 5.0 | 0.00 | 0.00 | 0.00 | 43 | 994.7 |
| 20260503182040 | 52 | 65 | 1.0 | 6.0 | 0.00 | 0.00 | 0.00 | 43 | 994.7 |
| 20260503181521 | 52 | 245 | 2.0 | 6.0 | 0.00 | 0.00 | 0.00 | 44 | 994.8 |
| 20260503181031 | 52 | 238 | 1.0 | 5.0 | 0.00 | 0.00 | 0.00 | 42 | 994.7 |
| 20260503180538 | 52 | 308 | 1.0 | 5.0 | 0.00 | 0.00 | 0.00 | 41 | 994.8 |
| 20260503180037 | 52 | 20 | 1.0 | 5.0 | 0.00 | 0.00 | 0.00 | 43 | 994.8 |
| 20260503175528 | 51 | 239 | 2.0 | 7.0 | 0.00 | 0.00 | 0.00 | 42 | 994.8 |
| 20260503175037 | 51 | 33 | 1.0 | 7.0 | 0.00 | 0.00 | 0.00 | 41 | 994.8 |
| 20260503174539 | 51 | 58 | 2.0 | 4.0 | 0.00 | 0.00 | 0.00 | 42 | 994.9 |
| 20260503174028 | 51 | 236 | 1.0 | 3.0 | 0.00 | 0.00 | 0.00 | 44 | 994.9 |
| 20260503173530 | 51 | 90 | 0.0 | 4.0 | 0.00 | 0.00 | 0.00 | 43 | 994.9 |
| 20260503173038 | 50 | 285 | 1.0 | 4.0 | 0.00 | 0.00 | 0.00 | 43 | 995.0 |
| 20260503172525 | 50 | 38 | 1.0 | 3.0 | 0.00 | 0.00 | 0.00 | 45 | 995.1 |
| 20260503172024 | 51 | 285 | 0.0 | 3.0 | 0.00 | 0.00 | 0.00 | 43 | 995.0 |
| 20260503171535 | 51 | 141 | 0.0 | 3.0 | 0.00 | 0.00 | 0.00 | 44 | 995.1 |
| 20260503171024 | 50 | 311 | 0.0 | 3.0 | 0.00 | 0.00 | 0.00 | 45 | 995.1 |
| 20260503170525 | 50 | 75 | 1.0 | 4.0 | 0.00 | 0.00 | 0.00 | 43 | 995.1 |
| 20260503150527 | 50 | 245 | 1.0 | 6.0 | 0.00 | 0.00 | 0.00 | 50 | 995.5 |
| 20260503131033 | 46 | 242 | 1.0 | 5.0 | 0.00 | 0.00 | 0.00 | 65 | 996.0 |
| 20260503130545 | 46 | 51 | 2.0 | 5.0 | 0.00 | 0.00 | 0.00 | 66 | 996.0 |
| 20260503110540 | 42 | 214 | 1.0 | 6.0 | 0.00 | 0.00 | 0.00 | 77 | 995.7 |
| 20260503081523 | 40 | 266 | 0.0 | 3.0 | 0.00 | 0.01 | 0.00 | 80 | 995.8 |
| 20260503081032 | 40 | 154 | 0.0 | 1.0 | 0.00 | 0.01 | 0.00 | 80 | 995.9 |
| 20260503080526 | 40 | 231 | 0.0 | 1.0 | 0.00 | 0.01 | 0.00 | 79 | 996.0 |
| 20260503072548 | 40 | 253 | 0.0 | 1.0 | 0.00 | 0.01 | 0.00 | 78 | 996.0 |
| 20260503072030 | 40 | 231 | 0.0 | 2.0 | 0.00 | 0.01 | 0.00 | 78 | 996.1 |
| 20260503071539 | 40 | 264 | 0.0 | 3.0 | 0.00 | 0.01 | 0.00 | 79 | 996.1 |
| 20260503071039 | 40 | 49 | 0.0 | 3.0 | 0.00 | 0.01 | 0.00 | 79 | 996.1 |
| 20260503070530 | 40 | 269 | 0.0 | 2.0 | 0.00 | 0.01 | 0.00 | 79 | 996.1 |
| 20260503055020 | 39 | 252 | 0.0 | 1.0 | 0.00 | 0.04 | 0.00 | 78 | 996.7 |
| 20260503054530 | 39 | 252 | 0.0 | 1.0 | 0.00 | 0.04 | 0.00 | 79 | 996.8 |
| 20260503054023 | 38 | 252 | 0.0 | 1.0 | 0.00 | 0.04 | 0.00 | 80 | 996.8 |
| 20260503053524 | 38 | 252 | 0.0 | 1.0 | 0.00 | 0.04 | 0.00 | 80 | 996.8 |
| 20260503053033 | 38 | 236 | 0.0 | 1.0 | 0.00 | 0.04 | 0.00 | 80 | 997.0 |
| 20260503052542 | 38 | 236 | 0.0 | 1.0 | 0.00 | 0.04 | 0.00 | 80 | 997.0 |
| 20260503052023 | 38 | 236 | 0.0 | 1.0 | 0.00 | 0.04 | 0.00 | 80 | 997.0 |
| 20260503051532 | 38 | 256 | 0.0 | 0.0 | 0.00 | 0.04 | 0.00 | 80 | 997.0 |
| 20260503051042 | 38 | 256 | 0.0 | 1.0 | 0.00 | 0.04 | 0.00 | 82 | 997.1 |
| 20260503050525 | 37 | 256 | 0.0 | 1.0 | 0.00 | 0.04 | 0.00 | 82 | 997.1 |
| 20260503050033 | 37 | 248 | 0.0 | 0.0 | 0.00 | 0.05 | 0.00 | 85 | 997.2 |
| 20260503045600 | 37 | 248 | 0.0 | 0.0 | 0.00 | 0.05 | 0.00 | 84 | 997.2 |
| 20260503045047 | 37 | 248 | 0.0 | 0.0 | 0.00 | 0.05 | 0.00 | 84 | 997.2 |
| 20260503044556 | 37 | 248 | 0.0 | 0.0 | 0.00 | 0.05 | 0.00 | 84 | 997.2 |
| 20260503044044 | 37 | 248 | 0.0 | 0.0 | 0.00 | 0.05 | 0.00 | 84 | 997.2 |
| 20260503043553 | 37 | 248 | 0.0 | 0.0 | 0.00 | 0.05 | 0.00 | 84 | 997.2 |
| 20260503043102 | 37 | 248 | 0.0 | 0.0 | 0.00 | 0.05 | 0.00 | 84 | 997.2 |
| 20260503042550 | 37 | 248 | 0.0 | 0.0 | 0.00 | 0.05 | 0.00 | 84 | 997.2 |
| 20260503042059 | 37 | 248 | 0.0 | 0.0 | 0.00 | 0.05 | 0.00 | 82 | 997.2 |
| 20260503041606 | 37 | 248 | 0.0 | 0.0 | 0.00 | 0.05 | 0.00 | 81 | 997.3 |
| 20260503041045 | 37 | 248 | 0.0 | 0.0 | 0.00 | 0.05 | 0.00 | 82 | 997.4 |
| 20260503040607 | 37 | 248 | 0.0 | 0.0 | 0.00 | 0.05 | 0.00 | 82 | 997.4 |
| 20260503040044 | 38 | 248 | 0.0 | 0.0 | 0.00 | 0.05 | 0.05 | 82 | 997.4 |
| 20260503035605 | 38 | 248 | 0.0 | 0.0 | 0.00 | 0.05 | 0.05 | 82 | 997.4 |
| 20260503035025 | 38 | 248 | 0.0 | 0.0 | 0.00 | 0.05 | 0.05 | 83 | 997.4 |
| 20260503034536 | 38 | 248 | 0.0 | 0.0 | 0.00 | 0.05 | 0.05 | 83 | 997.5 |
| 20260503034037 | 37 | 248 | 0.0 | 0.0 | 0.00 | 0.05 | 0.05 | 83 | 997.5 |
| 20260503033529 | 37 | 248 | 0.0 | 0.0 | 0.00 | 0.05 | 0.05 | 80 | 997.4 |
| 20260503033038 | 37 | 248 | 0.0 | 0.0 | 0.00 | 0.05 | 0.05 | 79 | 997.4 |
| 20260503032538 | 37 | 248 | 0.0 | 0.0 | 0.00 | 0.05 | 0.05 | 79 | 997.4 |
| 20260503032028 | 36 | 248 | 0.0 | 0.0 | 0.00 | 0.05 | 0.05 | 80 | 997.4 |
| 20260503031528 | 36 | 248 | 0.0 | 0.0 | 0.00 | 0.05 | 0.05 | 80 | 997.4 |
| 20260503031034 | 37 | 248 | 0.0 | 0.0 | 0.00 | 0.05 | 0.05 | 80 | 997.4 |
| 20260503030525 | 37 | 248 | 0.0 | 0.0 | 0.00 | 0.05 | 0.05 | 79 | 997.4 |
| 20260503030025 | 37 | 248 | 0.0 | 0.0 | 0.00 | 0.05 | 0.05 | 78 | 997.4 |
| 20260503025536 | 37 | 248 | 0.0 | 0.0 | 0.00 | 0.05 | 0.05 | 78 | 997.5 |
| 20260503025045 | 37 | 248 | 0.0 | 0.0 | 0.00 | 0.05 | 0.05 | 77 | 997.5 |
| 20260503024533 | 37 | 248 | 0.0 | 0.0 | 0.00 | 0.05 | 0.05 | 77 | 997.4 |
| 20260503024044 | 37 | 248 | 0.0 | 0.0 | 0.00 | 0.05 | 0.05 | 78 | 997.4 |
| 20260503023525 | 37 | 248 | 0.0 | 0.0 | 0.00 | 0.05 | 0.05 | 77 | 997.5 |
| 20260503023042 | 37 | 248 | 0.0 | 0.0 | 0.00 | 0.05 | 0.05 | 77 | 997.5 |
| 20260503022521 | 37 | 248 | 0.0 | 0.0 | 0.00 | 0.05 | 0.05 | 76 | 997.5 |
| 20260503022029 | 37 | 248 | 0.0 | 0.0 | 0.00 | 0.05 | 0.05 | 76 | 997.6 |
| 20260503021544 | 37 | 248 | 0.0 | 0.0 | 0.00 | 0.05 | 0.05 | 76 | 997.6 |
| 20260503021023 | 37 | 248 | 0.0 | 0.0 | 0.00 | 0.05 | 0.05 | 76 | 997.6 |
| 20260503020532 | 37 | 248 | 0.0 | 0.0 | 0.00 | 0.05 | 0.05 | 75 | 997.7 |
| 20260503020020 | 37 | 248 | 0.0 | 0.0 | 0.00 | 0.05 | 0.05 | 74 | 997.6 |
| 20260503015528 | 37 | 248 | 0.0 | 0.0 | 0.00 | 0.05 | 0.05 | 73 | 997.7 |
| 20260503015036 | 38 | 248 | 0.0 | 0.0 | 0.00 | 0.05 | 0.05 | 72 | 997.7 |
| 20260503014542 | 38 | 248 | 0.0 | 0.0 | 0.00 | 0.05 | 0.05 | 71 | 997.7 |
| 20260503014022 | 38 | 248 | 0.0 | 0.0 | 0.00 | 0.05 | 0.05 | 71 | 997.7 |
| 20260503013533 | 38 | 248 | 0.0 | 0.0 | 0.00 | 0.05 | 0.05 | 71 | 997.6 |
| 20260503013043 | 38 | 248 | 0.0 | 0.0 | 0.00 | 0.05 | 0.05 | 69 | 997.7 |
| 20260503012540 | 38 | 248 | 0.0 | 0.0 | 0.00 | 0.05 | 0.05 | 68 | 997.6 |
| 20260503012029 | 38 | 248 | 0.0 | 0.0 | 0.00 | 0.05 | 0.05 | 66 | 997.7 |
| 20260503011535 | 38 | 248 | 0.0 | 0.0 | 0.00 | 0.05 | 0.05 | 66 | 997.7 |
| 20260503011024 | 39 | 248 | 0.0 | 0.0 | 0.00 | 0.05 | 0.05 | 64 | 997.6 |
| 20260503010533 | 39 | 248 | 0.0 | 0.0 | 0.00 | 0.05 | 0.05 | 63 | 997.6 |
| 20260503010042 | 40 | 248 | 0.0 | 0.0 | 0.00 | 0.05 | 0.05 | 63 | 997.6 |
| 20260503005522 | 40 | 248 | 0.0 | 0.0 | 0.00 | 0.05 | 0.05 | 62 | 997.5 |
| 20260503005033 | 41 | 248 | 0.0 | 0.0 | 0.00 | 0.05 | 0.05 | 61 | 997.5 |
| 20260503004541 | 42 | 248 | 0.0 | 0.0 | 0.00 | 0.05 | 0.05 | 60 | 997.4 |
| 20260503004021 | 43 | 248 | 0.0 | 0.0 | 0.00 | 0.05 | 0.05 | 57 | 997.3 |
| 20260503003533 | 43 | 248 | 0.0 | 1.0 | 0.00 | 0.05 | 0.05 | 56 | 997.3 |
| 20260503003041 | 44 | 248 | 0.0 | 0.0 | 0.00 | 0.05 | 0.05 | 53 | 997.3 |
| 20260503002539 | 45 | 248 | 0.0 | 0.0 | 0.00 | 0.05 | 0.05 | 51 | 997.4 |
| 20260503002025 | 45 | 248 | 0.0 | 0.0 | 0.00 | 0.05 | 0.05 | 50 | 997.2 |
| 20260503001534 | 46 | 248 | 0.0 | 0.0 | 0.00 | 0.05 | 0.05 | 49 | 997.2 |
| 20260503001035 | 47 | 248 | 0.0 | 1.0 | 0.00 | 0.05 | 0.05 | 48 | 997.2 |
| 20260503000526 | 47 | 248 | 0.0 | 4.0 | 0.00 | 0.05 | 0.05 | 46 | 997.2 |
| 20260503000022 | 48 | 251 | 1.0 | 4.0 | 0.00 | 0.05 | 0.05 | 47 | 997.1 |
| 20260502235532 | 48 | 262 | 1.0 | 3.0 | 0.00 | 0.05 | 0.05 | 46 | 997.1 |
| 20260502235022 | 48 | 264 | 1.0 | 3.0 | 0.00 | 0.05 | 0.05 | 46 | 997.0 |
| 20260502234548 | 48 | 27 | 0.0 | 4.0 | 0.00 | 0.05 | 0.05 | 45 | 997.0 |
| 20260502234028 | 48 | 260 | 2.0 | 4.0 | 0.00 | 0.05 | 0.05 | 45 | 996.9 |
| 20260502233556 | 49 | 271 | 1.0 | 3.0 | 0.00 | 0.05 | 0.05 | 46 | 997.0 |
| 20260502233059 | 49 | 216 | 0.0 | 4.0 | 0.00 | 0.05 | 0.05 | 45 | 996.9 |
| 20260502232547 | 49 | 210 | 1.0 | 9.0 | 0.00 | 0.05 | 0.05 | 45 | 996.9 |
| 20260502232055 | 49 | 284 | 2.0 | 9.0 | 0.00 | 0.05 | 0.05 | 45 | 996.9 |
| 20260502231542 | 49 | 282 | 2.0 | 6.0 | 0.00 | 0.05 | 0.05 | 44 | 996.9 |
| 20260502231050 | 49 | 149 | 1.0 | 4.0 | 0.00 | 0.05 | 0.05 | 45 | 996.9 |
| 20260502230556 | 50 | 243 | 0.0 | 4.0 | 0.00 | 0.05 | 0.05 | 46 | 996.8 |
| 20260502230042 | 50 | 42 | 1.0 | 3.0 | 0.00 | 0.05 | 0.05 | 45 | 996.8 |
| 20260502225550 | 50 | 243 | 0.0 | 4.0 | 0.00 | 0.05 | 0.05 | 46 | 996.7 |
| 20260502225030 | 50 | 309 | 1.0 | 6.0 | 0.00 | 0.05 | 0.05 | 45 | 996.6 |
| 20260502224532 | 50 | 275 | 1.0 | 6.0 | 0.00 | 0.05 | 0.05 | 44 | 996.6 |
| 20260502224021 | 50 | 274 | 2.0 | 6.0 | 0.00 | 0.05 | 0.05 | 47 | 996.5 |
| 20260502223522 | 50 | 309 | 2.0 | 6.0 | 0.00 | 0.05 | 0.05 | 44 | 996.5 |
| 20260502223028 | 50 | 269 | 2.0 | 6.0 | 0.00 | 0.05 | 0.05 | 46 | 996.5 |
| 20260502222533 | 51 | 317 | 1.0 | 6.0 | 0.00 | 0.05 | 0.05 | 45 | 996.4 |
| 20260502222023 | 51 | 338 | 1.0 | 4.0 | 0.00 | 0.05 | 0.05 | 46 | 996.3 |
| 20260502221526 | 51 | 265 | 1.0 | 5.0 | 0.00 | 0.05 | 0.05 | 48 | 996.2 |
| 20260502221027 | 51 | 250 | 2.0 | 5.0 | 0.00 | 0.05 | 0.05 | 49 | 996.2 |
| 20260502220540 | 51 | 269 | 1.0 | 3.0 | 0.00 | 0.05 | 0.05 | 54 | 996.1 |
| 20260502220026 | 51 | 148 | 1.0 | 3.0 | 0.00 | 0.05 | 0.05 | 61 | 996.1 |
| 20260502215533 | 51 | 52 | 1.0 | 2.0 | 0.00 | 0.05 | 0.05 | 61 | 996.0 |
| 20260502215022 | 51 | 311 | 0.0 | 2.0 | 0.00 | 0.05 | 0.05 | 61 | 996.0 |
| 20260502214523 | 52 | 39 | 1.0 | 4.0 | 0.00 | 0.05 | 0.05 | 60 | 995.9 |
| 20260502214034 | 52 | 333 | 1.0 | 4.0 | 0.00 | 0.05 | 0.05 | 60 | 995.8 |
| 20260502213526 | 52 | 213 | 1.0 | 4.0 | 0.00 | 0.05 | 0.05 | 60 | 995.8 |
| 20260502213022 | 52 | 359 | 1.0 | 4.0 | 0.00 | 0.05 | 0.05 | 60 | 995.8 |
| 20260502212533 | 52 | 294 | 0.0 | 6.0 | 0.00 | 0.05 | 0.05 | 61 | 995.9 |
| 20260502212024 | 53 | 79 | 1.0 | 6.0 | 0.00 | 0.05 | 0.05 | 59 | 995.8 |
| 20260502211524 | 53 | 236 | 1.0 | 6.0 | 0.00 | 0.05 | 0.05 | 57 | 995.8 |
| 20260502211034 | 54 | 325 | 1.0 | 8.0 | 0.00 | 0.05 | 0.05 | 52 | 995.8 |
| 20260502210541 | 55 | 302 | 1.0 | 8.0 | 0.00 | 0.05 | 0.05 | 42 | 995.8 |
| 20260502210019 | 56 | 86 | 0.0 | 3.0 | 0.00 | 0.05 | 0.05 | 44 | 995.7 |
| 20260502205529 | 57 | 289 | 1.0 | 6.0 | 0.00 | 0.05 | 0.05 | 40 | 995.7 |
| 20260502205039 | 57 | 48 | 1.0 | 9.0 | 0.00 | 0.05 | 0.05 | 42 | 995.6 |
| 20260502204520 | 57 | 240 | 3.0 | 9.0 | 0.00 | 0.05 | 0.05 | 40 | 995.5 |
| 20260502204030 | 57 | 287 | 2.0 | 9.0 | 0.00 | 0.05 | 0.05 | 43 | 995.4 |
| 20260502203541 | 57 | 284 | 1.0 | 7.0 | 0.00 | 0.05 | 0.05 | 40 | 995.4 |
| 20260502203020 | 57 | 144 | 1.0 | 5.0 | 0.00 | 0.05 | 0.05 | 45 | 995.4 |
| 20260502202531 | 56 | 104 | 2.0 | 6.0 | 0.00 | 0.05 | 0.05 | 45 | 995.4 |
| 20260502202032 | 56 | 290 | 3.0 | 8.0 | 0.00 | 0.05 | 0.05 | 41 | 995.5 |
| 20260502201521 | 55 | 240 | 2.0 | 5.0 | 0.00 | 0.05 | 0.05 | 51 | 995.5 |
| 20260502201032 | 55 | 240 | 1.0 | 3.0 | 0.00 | 0.05 | 0.05 | 47 | 995.6 |
| 20260502200535 | 55 | 248 | 1.0 | 3.0 | 0.00 | 0.05 | 0.05 | 45 | 995.6 |
| 20260502200022 | 55 | 229 | 1.0 | 5.0 | 0.00 | 0.05 | 0.05 | 47 | 995.6 |
| 20260502195522 | 56 | 206 | 1.0 | 6.0 | 0.00 | 0.05 | 0.05 | 47 | 995.7 |
| 20260502195033 | 56 | 286 | 1.0 | 6.0 | 0.00 | 0.05 | 0.05 | 48 | 995.7 |
| 20260502194523 | 56 | 303 | 1.0 | 6.0 | 0.00 | 0.05 | 0.05 | 48 | 995.6 |
| 20260502194020 | 56 | 243 | 2.0 | 6.0 | 0.00 | 0.05 | 0.05 | 47 | 995.8 |
| 20260502193532 | 56 | 226 | 0.0 | 3.0 | 0.00 | 0.05 | 0.05 | 51 | 995.8 |
| 20260502193021 | 55 | 275 | 0.0 | 5.0 | 0.00 | 0.05 | 0.05 | 52 | 995.9 |
| 20260502192547 | 55 | 219 | 2.0 | 6.0 | 0.00 | 0.05 | 0.05 | 48 | 995.9 |
| 20260502192027 | 55 | 234 | 1.0 | 5.0 | 0.00 | 0.05 | 0.05 | 54 | 996.0 |
| 20260502191537 | 55 | 282 | 2.0 | 7.0 | 0.00 | 0.05 | 0.05 | 49 | 995.9 |